When you browse on this site, cookies collect data to enhance your experience and personalize the content and advertising you see.
Visit our Privacy Policy to learn more. By continuing to use the site, you agree to this use of cookies and data.
  • In Romania
  • List of Countries
  • For 7 days
  • Water Temperature
  • Satellite Maps
  • Weather Map
  • Weather Widgets
  • user-avatar
    Login

    Hourly Weather Kingston

    Today, 10 December, Monday

    Time Temperature Precipitation Wind Pressure Humidity
    00:00 +21°C° 0.2 mm 3 mps 707 mmHg 93%
    01:00 +21°C° 0 mm 3 mps 707 mmHg 93%
    02:00 +21°C° 0.4 mm 3 mps 707 mmHg 93%
    03:00 +21°C° 0.4 mm 3 mps 707 mmHg 93%
    04:00 +21°C° 0.4 mm 3 mps 707 mmHg 93%
    05:00 +21°C° 0.2 mm 3 mps 707 mmHg 93%
    06:00 +21°C° 0.2 mm 3 mps 707 mmHg 92%
    07:00 +21°C° 0.2 mm 3 mps 707 mmHg 92%
    08:00 +22°C° 0 mm 4 mps 708 mmHg 85%
    09:00 +25°C° 0 mm 4 mps 708 mmHg 78%
    10:00 +26°C° 0 mm 4 mps 709 mmHg 72%
    11:00 +27°C° 0 mm 5 mps 709 mmHg 68%
    12:00 +27°C° 0 mm 5 mps 709 mmHg 64%
    13:00 +28°C° 0 mm 5 mps 708 mmHg 61%
    14:00 +27°C° 0 mm 5 mps 708 mmHg 61%
    15:00 +27°C° 0 mm 5 mps 708 mmHg 62%
    16:00 +27°C° 0 mm 4 mps 707 mmHg 63%
    17:00 +25°C° 0 mm 4 mps 707 mmHg 71%
    18:00 +22°C° 0 mm 3 mps 708 mmHg 79%
    19:00 +20°C° 0 mm 3 mps 708 mmHg 87%
    20:00 +20°C° 0 mm 3 mps 708 mmHg 88%
    21:00 +20°C° 0 mm 3 mps 708 mmHg 90%
    22:00 +20°C° 0 mm 3 mps 708 mmHg 91%
    23:00 +20°C° 0 mm 3 mps 708 mmHg 91%

    Tomorrow, 11 December, Tuesday

    Time Temperature Precipitation Wind Pressure Humidity
    00:00 +20°C° 0 mm 3 mps 708 mmHg 91%
    01:00 +20°C° 0 mm 3 mps 708 mmHg 92%
    02:00 +19°C° 0 mm 3 mps 708 mmHg 92%
    03:00 +19°C° 0 mm 3 mps 707 mmHg 91%
    04:00 +19°C° 0 mm 3 mps 707 mmHg 91%
    05:00 +19°C° 0.1 mm 3 mps 708 mmHg 91%
    06:00 +20°C° 0.1 mm 3 mps 708 mmHg 90%
    07:00 +20°C° 0.1 mm 3 mps 708 mmHg 89%
    08:00 +22°C° 0.1 mm 3 mps 709 mmHg 81%
    09:00 +25°C° 0.1 mm 3 mps 710 mmHg 72%
    10:00 +27°C° 0.1 mm 3 mps 710 mmHg 64%
    11:00 +27°C° 0.3 mm 3 mps 710 mmHg 62%
    12:00 +28°C° 0.3 mm 3 mps 709 mmHg 61%
    13:00 +28°C° 0.3 mm 3 mps 709 mmHg 59%
    14:00 +28°C° 0.1 mm 3 mps 709 mmHg 59%
    15:00 +28°C° 0.1 mm 3 mps 708 mmHg 60%
    16:00 +27°C° 0.1 mm 3 mps 708 mmHg 60%
    17:00 +26°C° 0.1 mm 3 mps 708 mmHg 68%
    18:00 +24°C° 0.1 mm 2 mps 708 mmHg 75%
    19:00 +21°C° 0.1 mm 2 mps 708 mmHg 83%
    20:00 +21°C° 0 mm 2 mps 709 mmHg 86%
    21:00 +20°C° 0 mm 2 mps 709 mmHg 89%
    22:00 +20°C° 0 mm 2 mps 709 mmHg 91%
    23:00 +20°C° 0 mm 2 mps 709 mmHg 91%

    Day after tomorrow, 12 December, Wednesday

    Time Temperature Precipitation Wind Pressure Humidity
    00:00 +20°C° 0 mm 3 mps 708 mmHg 91%
    01:00 +19°C° 0 mm 3 mps 708 mmHg 91%
    02:00 +19°C° 0.1 mm 3 mps 708 mmHg 91%
    03:00 +20°C° 0.1 mm 4 mps 707 mmHg 91%
    04:00 +20°C° 0.1 mm 4 mps 707 mmHg 92%
    05:00 +20°C° 0.1 mm 4 mps 708 mmHg 91%
    06:00 +20°C° 0.1 mm 4 mps 708 mmHg 91%
    07:00 +20°C° 0.1 mm 4 mps 708 mmHg 90%
    08:00 +22°C° 0.1 mm 4 mps 709 mmHg 84%
    09:00 +23°C° 0.1 mm 4 mps 709 mmHg 78%
    10:00 +25°C° 0.1 mm 5 mps 710 mmHg 72%
    11:00 +26°C° 0.2 mm 4 mps 709 mmHg 71%
    12:00 +26°C° 0.2 mm 4 mps 709 mmHg 70%
    13:00 +26°C° 0.2 mm 4 mps 708 mmHg 69%
    14:00 +26°C° 0.3 mm 4 mps 708 mmHg 71%
    15:00 +25°C° 0.3 mm 4 mps 707 mmHg 73%
    16:00 +25°C° 0.3 mm 4 mps 707 mmHg 75%
    17:00 +23°C° 0.2 mm 4 mps 707 mmHg 81%
    18:00 +22°C° 0.2 mm 4 mps 707 mmHg 86%
    19:00 +21°C° 0.2 mm 4 mps 707 mmHg 91%
    20:00 +21°C° 0.1 mm 4 mps 708 mmHg 91%
    21:00 +21°C° 0.1 mm 4 mps 708 mmHg 92%
    22:00 +21°C° 0.1 mm 4 mps 708 mmHg 93%
    23:00 +20°C° 0.4 mm 4 mps 708 mmHg 93%

    13 December, Thursday

    Time Temperature Precipitation Wind Pressure Humidity
    00:00 +20°C° 0.4 mm 4 mps 707 mmHg 93%
    01:00 +20°C° 0.4 mm 4 mps 707 mmHg 93%
    02:00 +20°C° 0.4 mm 4 mps 707 mmHg 93%
    03:00 +20°C° 0.4 mm 4 mps 707 mmHg 94%
    04:00 +20°C° 0.4 mm 4 mps 706 mmHg 94%
    05:00 +20°C° 0.5 mm 4 mps 707 mmHg 93%
    06:00 +20°C° 0.5 mm 4 mps 707 mmHg 93%
    07:00 +20°C° 0.5 mm 3 mps 708 mmHg 93%
    08:00 +22°C° 0.4 mm 3 mps 708 mmHg 85%
    09:00 +24°C° 0.4 mm 3 mps 709 mmHg 78%
    10:00 +26°C° 0.4 mm 4 mps 709 mmHg 71%
    11:00 +27°C° 0.2 mm 4 mps 709 mmHg 67%
    12:00 +27°C° 0.2 mm 4 mps 708 mmHg 63%
    13:00 +28°C° 0.2 mm 4 mps 708 mmHg 59%
    14:00 +28°C° 0.1 mm 4 mps 707 mmHg 61%
    15:00 +27°C° 0.1 mm 4 mps 707 mmHg 64%
    16:00 +26°C° 0.1 mm 4 mps 706 mmHg 67%
    17:00 +25°C° 0.2 mm 4 mps 707 mmHg 73%
    18:00 +23°C° 0.2 mm 4 mps 707 mmHg 80%
    19:00 +21°C° 0.2 mm 4 mps 707 mmHg 86%
    20:00 +21°C° 0 mm 4 mps 707 mmHg 87%
    21:00 +20°C° 0 mm 4 mps 707 mmHg 87%
    22:00 +20°C° 0 mm 4 mps 708 mmHg 88%
    23:00 +20°C° 0 mm 4 mps 707 mmHg 88%

    14 December, Friday

    Time Temperature Precipitation Wind Pressure Humidity
    00:00 +20°C° 0 mm 4 mps 707 mmHg 88%
    01:00 +19°C° 0 mm 4 mps 707 mmHg 88%
    02:00 +19°C° 0 mm 4 mps 707 mmHg 88%
    03:00 +19°C° 0 mm 4 mps 706 mmHg 89%
    04:00 +19°C° 0 mm 4 mps 706 mmHg 89%
    05:00 +19°C° 0.1 mm 4 mps 707 mmHg 89%
    06:00 +19°C° 0.1 mm 4 mps 707 mmHg 88%
    07:00 +19°C° 0.1 mm 4 mps 707 mmHg 88%
    08:00 +22°C° 0.1 mm 4 mps 708 mmHg 81%
    09:00 +25°C° 0.1 mm 4 mps 708 mmHg 74%
    10:00 +27°C° 0.1 mm 5 mps 709 mmHg 67%
    11:00 +27°C° 0.2 mm 5 mps 708 mmHg 66%
    12:00 +27°C° 0.2 mm 5 mps 708 mmHg 66%
    13:00 +28°C° 0.2 mm 5 mps 707 mmHg 65%
    14:00 +27°C° 0.3 mm 5 mps 707 mmHg 68%
    15:00 +26°C° 0.3 mm 5 mps 707 mmHg 70%
    16:00 +26°C° 0.3 mm 5 mps 706 mmHg 73%
    17:00 +23°C° 0.4 mm 4 mps 707 mmHg 78%
    18:00 +22°C° 0.4 mm 4 mps 707 mmHg 84%
    19:00 +21°C° 0.4 mm 3 mps 707 mmHg 90%
    20:00 +21°C° 0.6 mm 3 mps 707 mmHg 90%
    21:00 +21°C° 0.6 mm 3 mps 708 mmHg 90%
    22:00 +21°C° 0.6 mm 3 mps 708 mmHg 90%
    23:00 +21°C° 1.2 mm 3 mps 708 mmHg 89%

    15 December, Saturday

    Time Temperature Precipitation Wind Pressure Humidity
    00:00 +21°C° 1.2 mm 4 mps 708 mmHg 89%
    01:00 +21°C° 1.2 mm 4 mps 707 mmHg 89%
    02:00 +20°C° 1.2 mm 4 mps 707 mmHg 89%
    03:00 +20°C° 1.2 mm 4 mps 707 mmHg 89%
    04:00 +20°C° 1.2 mm 4 mps 707 mmHg 89%
    05:00 +20°C° 0.8 mm 4 mps 708 mmHg 89%
    06:00 +20°C° 0.8 mm 4 mps 708 mmHg 88%
    07:00 +21°C° 0.8 mm 3 mps 708 mmHg 88%
    08:00 +22°C° 0.4 mm 4 mps 709 mmHg 82%
    09:00 +25°C° 0.4 mm 4 mps 709 mmHg 75%
    10:00 +26°C° 0.4 mm 4 mps 710 mmHg 69%
    11:00 +27°C° 0.4 mm 4 mps 709 mmHg 68%
    12:00 +27°C° 0.4 mm 4 mps 709 mmHg 68%
    13:00 +27°C° 0.4 mm 4 mps 708 mmHg 67%
    14:00 +27°C° 0.3 mm 4 mps 708 mmHg 68%
    15:00 +26°C° 0.3 mm 4 mps 708 mmHg 70%
    16:00 +26°C° 0.3 mm 4 mps 708 mmHg 72%
    17:00 +25°C° 0.1 mm 4 mps 708 mmHg 77%
    18:00 +22°C° 0.1 mm 3 mps 708 mmHg 83%
    19:00 +21°C° 0.1 mm 3 mps 709 mmHg 88%
    20:00 +21°C° 0.2 mm 3 mps 709 mmHg 89%
    21:00 +21°C° 0.2 mm 3 mps 709 mmHg 90%
    22:00 +21°C° 0.2 mm 3 mps 709 mmHg 91%
    23:00 +21°C° 0.2 mm 3 mps 709 mmHg 91%
    Show more